132  
NZUS99 KTBW 231116  
RWRTPA  
FLORIDA REGIONAL WEATHER ROUNDUP  
NATIONAL WEATHER SERVICE TAMPA BAY RUSKIN FL  
700 AM EDT SAT OCT 23 2021  
 
NOTE: "FAIR" INDICATES FEW OR NO CLOUDS BELOW 12,000 FEET WITH NO  
SIGNIFICANT WEATHER AND/OR S TO VISIBILITY
.  
 
 
STATION/POSITION
 
 
 
FLZ042-048>051-055-056-060-061-231200-  
EXTRA STATIONS  
 
CITY SKY/WX TMP DP RH WIND PRES REMARKS
 
EVERGLADES CTY NOT AVBL  
CRYSTAL RIVER FAIR 64 64 100 CALM 30.01R  
SEBRING FAIR 69 69 99 N6 29.98R  
EGLIN AFB FAIR 50 48 93 CALM 30.03R  
CANAVERAL CLOUDY 72 69 93 N6 29.97R  
 

 
FLZ001>010-012>015-231200-  
PANHANDLE FLORIDA  
 
CITY SKY/WX TMP DP RH WIND PRES REMARKS
 
PENSACOLA CLEAR 64 54 69 NE3 30.02R  
PENSACOLA NAS CLEAR 62 54 74 NE7 30.02R  
MILTON NAS CLEAR 53 51 93 CALM 30.04R  
VALPARAISO CLEAR 56 51 81 NE5 30.02R  
MARY ESTHER CLEAR 57 52 81 N6 30.02R  
PANAMA CITY FAIR 55 54 96 CALM 30.02R  
TYNDALL AFB CLEAR 65 54 69 NE5 30.02R  
APALACHICOLA CLEAR 63 60 90 NE5 30.01R  
 
STATION/POSITION
 
 
29.2N 88.2W  
28.8N 86.0W  
28.5N 84.5W  
 

 
FLZ011-016>039-231200-  
NORTH FLORIDA  
 
CITY SKY/WX TMP DP RH WIND PRES REMARKS
 
MARIANNA CLEAR 54 52 93 CALM 30.03  
TALLAHASSEE CLEAR 56 53 90 CALM 30.02R  
CROSS CITY FOG 65 65 99 CALM 30.01R VSB 1/2  
GAINESVILLE CLEAR 64 63 96 SE3 30.03R  
MAYPORT NAS CLEAR 66 62 87 CALM 29.99R  
JACKSONVILLE PTCLDY 62 58 86 CALM 29.99R  
JAX NAS PTCLDY 70 62 76 N5 30.00R  
JAX CRAIG CLEAR 65 60 84 CALM 30.00R  
ST AUGUSTINE CLEAR 67 66 97 W5 30.01R  
 
STATION/POSITION
 
 
KEATON BEACH  
31.4N 80.9W  
ST AUGUSTINE  
 

 
FLZ040-043>046-052-053-057-058-063-231200-  
CENTRAL FLORIDA  
 
CITY SKY/WX TMP DP RH WIND PRES REMARKS
 
OCALA CLEAR 64 64 100 CALM 30.02R  
LEESBURG MOCLDY 70 67 90 N3 30.00S  
SANFORD MOCLDY 71 68 90 N7 29.99R  
ORLANDO EXEC CLOUDY 71 69 93 CALM 29.99R  
ORLANDO INTL CLOUDY 72 69 90 CALM 29.99R  
KISSIMMEE CLOUDY 72 69 90 CALM 30.00R  
WINTER HAVEN MOCLDY 71 68 90 NE3 30.00R  
LAKELAND CLEAR 70 70 100 CALM 29.99R  
BARTOW FAIR 68 66 94 CALM 30.00R  
 

 
FLZ041-047-054-059-064-231200-  
EAST CENTRAL FLORIDA  
 
CITY SKY/WX TMP DP RH WIND PRES REMARKS
 
DAYTONA BEACH PTCLDY 70 68 93 NW3 29.99S  
JFK SPACE CTR CLOUDY 70 68 96 CALM 29.97R  
TITUSVILLE CLEAR 72 70 94 CALM 29.99  
PATRICK AFB CLOUDY 75 75 99 N6 29.96R  
MELBOURNE CLOUDY 71 70 96 CALM 29.97R  
VERO BEACH MOCLDY 71 70 96 CALM 29.97R  
FT PIERCE MOCLDY 71 69 93 CALM 29.96S  
STUART PTCLDY 73 72 94 CALM 29.98R  
 
STATION/POSITION
 
 
28.9N 78.5W  
 

 
FLZ042-048>051-055-056-060-061-231200-  
WEST CENTRAL FLORIDA  
 
CITY SKY/WX TMP DP RH WIND PRES REMARKS
 
BROOKSVILLE CLOUDY 65 64 97 CALM 30.01R  
TAMPA CLOUDY 74 69 85 N5 29.99R  
MACDILL AFB CLOUDY 70 69 99 CALM 29.95R  
ST PETERSBURG CLOUDY 74 69 85 N5 29.98R  
ST PET-WHITTED CLOUDY 76 71 85 N6 29.96R  
SARASOTA MOCLDY 71 69 93 E3 29.96R  
 
STATION/POSITION
 
 
CEDAR KEY  
28.5N 84.5W  
VENICE  
 

 
FLZ062-065-066-069-070-075>078-231200-  
SOUTHWEST FLORIDA AND KEYS  
 
CITY SKY/WX TMP DP RH WIND PRES REMARKS
 
PUNTA GORDA MOCLDY 71 70 96 NE5 29.98R  
FT MYERS MOCLDY 73 71 93 NE5 29.96R  
SOUTHWEST INTL MOCLDY 73 70 90 NE5 29.96R  
NAPLES MOCLDY 74 74 100 NE3 29.95R  
MARATHON MOCLDY N/A N/A N/A NE6 29.92S  
KEY WEST NAS MOCLDY 79 74 84 N3 29.93R  
KEY WEST INTL MOCLDY 76 75 97 CALM 29.93R  
 
STATION/POSITION
 
 
VENICE  
26.0N 85.6W  
SAND KEY  
SOMBRERO KEY  
LONG KEY  
 

 
FLZ067-068-071>074-231200-  
SOUTHEAST FLORIDA  
 
CITY SKY/WX TMP DP RH WIND PRES REMARKS
 
W PALM BEACH CLOUDY 74 72 93 N5 29.95R  
POMPANO BEACH HVY RAIN 76 73 91 CALM 29.94S FOG  
FT LAUDER-EXEC CLOUDY 75 73 93 N3 29.94R  
FT LAUDERDALE MOCLDY 75 75 100 NW6 29.93R  
PEMBROKE PINES LGT RAIN 75 73 93 CALM 29.96R  
MIAMI MOCLDY 75 75 100 CALM 29.94R  
WEST KENDALL MOCLDY 74 71 91 CALM 29.94R  
HOMESTEAD MOCLDY 73 72 96 CALM 29.92S  
 
STATION/POSITION
 
 
LAKE WORTH  
FOWEY ROCKS  
SETTLEMENT POINT  
 

 
 
 
CLICK HERE TO GO TO PREVIOUS BULLETINS.

The Nexlab FL Page Main Text Page